Location: Launois
(49.6535°N, 4.5395°E)
Time: 00:35:24
(UTC+00:00)

CZ-2D R/B - Pass Details

Date: 12 August 2024
Orbit: 790 x 842 km, 98.8° (Epoch: 07 September)

Event Time Altitude Azimuth Distance (km) Brightness Sun altitude
Rises 00:50:21 0° 24° (NNE) 3,331 6.7 -24.0°
Reaches altitude 10° 00:53:04 10° 37° (NE) 2,403 5.5 -23.8°
Maximum altitude 00:57:30 26° 93° (E) 1,550 3.7 -23.6°
Enters shadow 00:59:40 20° 129° (SE) 1,798 3.7 -23.5°
